Wind_Speed
15 15 15 14 14 14 13 12 12 12 12 12 12 11 11 10 9 9 8 8 7 7 6 6 6 5 5 6 6 6 5 5 5 4 4 3 3 3 3 3 2 2 2
16 16 16 16 16 16 15 14 14 14 14 14 13 13 12 12 11 11 10 9 9 8 8 7 7 7 6 6 7 7 7 7 7 6 5 5 5 4 4 4 3 3 3
18 18 17 17 18 17 17 16 16 16 16 15 15 14 14 13 13 12 11 11 11 10 9 9 8 8 8 7 8 8 8 8 8 8 7 7 6 6 6 5 5 5 4
20 20 19 19 19 19 18 18 18 17 17 17 16 16 15 14 14 13 12 12 12 11 11 10 9 9 9 9 8 8 9 9 9 9 9 8 8 7 6 6 6 6 6
22 21 21 20 20 20 20 19 19 18 18 18 18 17 16 16 15 15 14 14 13 12 12 11 11 11 10 10 10 10 10 11 10 10 10 10 9 8 8 8 7 7 7
23 23 22 22 21 21 21 20 20 20 19 19 19 18 18 17 17 16 16 15 15 14 13 13 12 12 11 11 11 11 11 12 11 11 11 11 10 10 9 9 9 9 9
24 24 24 24 23 23 22 22 21 21 20 20 20 20 19 19 19 18 17 17 16 16 15 14 14 14 13 13 12 12 12 12 12 12 12 12 11 11 10 10 10 9 10
26 26 26 25 25 25 24 23 23 22 22 21 21 21 20 20 19 19 19 19 18 18 17 16 15 15 15 14 14 13 13 13 14 14 13 13 12 12 11 11 11 11 10
29 28 28 27 27 26 26 25 25 24 24 23 22 22 22 21 21 20 20 20 19 19 18 18 17 16 16 15 15 15 14 15 15 15 15 14 14 14 13 13 12 12 12
31 30 30 29 28 28 28 27 26 26 26 25 25 24 23 23 22 22 21 21 20 20 20 19 19 17 17 16 16 16 15 16 16 15 16 16 16 15 15 14 14 14 13
34 33 32 31 31 30 30 30 29 28 28 27 26 25 25 24 24 23 23 23 22 21 21 20 20 19 18 18 17 17 16 17 17 16 16 16 16 16 16 16 15 15 15
36 35 35 34 33 33 32 32 31 30 30 29 28 27 27 27 26 25 24 24 23 22 22 21 21 20 20 19 18 18 18 17 17 17 17 17 18 17 17 17 17 16 16
38 38 37 36 35 35 34 34 33 33 32 31 30 29 29 29 28 27 26 26 25 24 23 23 23 22 21 21 20 20 20 19 19 19 19 19 19 18 19 19 18 18 18
39 39 38 38 37 36 36 36 35 35 33 33 32 32 31 31 30 29 28 28 27 26 25 25 24 23 23 23 22 22 22 22 21 21 20 20 20 20 20 20 20 19 19
40 40 40 40 39 38 38 38 37 36 35 34 34 34 34 33 32 31 31 30 29 28 27 26 26 25 24 24 24 23 23 23 23 23 22 22 22 21 21 21 21 21 21
41 41 41 41 41 40 40 40 39 38 37 36 36 36 35 35 34 33 32 32 31 31 30 29 28 27 27 26 26 25 25 25 25 24 24 23 23 23 23 23 23 23 22
43 43 43 43 43 42 42 41 40 39 38 38 37 38 37 37 36 35 34 34 33 33 32 31 31 29 29 28 28 27 27 27 27 26 25 25 25 25 24 24 25 25 24
44 44 44 45 45 44 44 42 42 41 41 40 39 39 38 38 38 37 36 36 36 35 34 34 33 31 31 30 30 29 29 29 29 28 28 27 27 27 26 26 26 26 26
45 45 46 46 46 45 45 45 44 44 42 42 42 41 41 40 40 39 38 38 37 37 37 36 34 33 32 32 32 31 31 31 31 30 30 29 28 28 28 27 28 28 28
45 46 47 48 48 47 46 46 46 46 45 44 44 44 44 43 42 41 40 40 39 38 38 38 37 35 34 34 34 33 33 33 33 33 32 31 30 30 30 29 30 30 30
46 46 47 48 48 47 47 47 47 47 47 47 46 45 45 45 44 43 43 42 41 40 40 39 39 38 37 37 36 35 35 36 36 35 34 34 33 32 32 32 32 32 32
47 47 48 48 48 48 47 48 48 48 48 47 47 47 47 46 45 45 45 44 44 43 42 41 41 40 40 40 39 38 37 37 37 37 37 37 35 35 34 34 34 34 34
47 48 48 48 49 49 48 48 49 49 48 48 48 49 48 48 48 48 47 47 46 46 45 44 44 43 43 42 42 41 40 39 39 39 39 38 37 37 37 36 36 36 36
48 48 48 49 49 49 48 48 48 48 48 47 48 50 50 49 49 49 50 49 49 48 47 46 45 45 45 44 43 42 42 41 40 40 41 40 39 39 39 39 39 39 38
49 49 49 49 50 50 49 49 49 50 49 48 48 49 51 51 51 51 51 51 51 51 50 49 48 48 47 46 45 44 44 43 43 42 42 42 41 41 40 40 40 40 40
48 49 50 50 51 52 51 50 50 50 50 50 50 49 49 49 51 51 52 52 52 52 53 52 51 50 49 48 47 46 46 45 44 44 44 45 44 43 42 42 42 42 41
Wind_Direction
243 243 242 241 240 240 241 242 242 244 246 246 246 243 241 240 237 233 230 227 227 225 225 223 221 223 224 224 228 232 236 238 240 247 253 257 252 262 273 275 273 273 275
246 245 244 243 241 241 240 242 243 243 244 244 245 244 244 241 239 237 236 232 231 230 229 226 225 230 234 235 234 238 240 241 243 246 252 255 252 258 265 266 268 268 270
246 246 245 245 243 242 242 243 244 245 244 244 244 246 245 242 240 238 238 236 233 233 233 233 234 236 238 240 240 242 244 244 244 246 252 254 252 256 261 260 262 265 263
246 246 245 245 244 244 243 244 245 245 245 244 244 244 244 242 240 239 239 236 234 235 237 238 238 241 244 244 244 247 248 247 247 247 250 252 253 254 256 258 260 261 261
247 246 245 245 245 245 245 245 245 245 245 245 244 243 243 242 239 239 238 237 236 237 238 239 242 244 246 246 250 252 249 247 247 248 248 249 253 253 255 257 259 259 261
246 246 245 244 245 246 246 246 246 245 244 244 244 242 242 242 240 239 239 239 239 240 241 241 245 247 248 250 253 252 250 248 247 249 248 246 250 253 255 257 258 258 261
246 245 245 246 245 246 246 245 245 244 243 242 243 243 242 242 242 241 241 240 240 242 242 244 246 248 249 249 252 251 248 248 247 248 248 246 249 251 253 254 256 257 259
247 247 247 247 246 245 244 243 243 243 242 241 242 243 243 243 242 242 240 240 241 243 244 246 247 247 248 248 250 250 249 249 249 248 247 247 249 250 252 253 255 257 258
248 247 247 246 246 245 244 243 242 242 242 241 241 242 242 242 242 242 241 241 242 243 245 247 247 245 247 247 250 250 251 249 250 248 247 248 250 251 252 253 254 256 258
248 247 247 246 245 245 245 244 243 242 241 241 241 241 242 243 242 241 241 243 243 242 243 245 247 246 247 249 251 252 251 250 249 248 249 250 252 251 252 254 256 257 259
247 246 246 245 245 245 246 245 243 243 242 242 242 241 241 241 242 242 242 243 244 244 243 244 245 245 247 249 250 251 250 249 248 248 249 251 252 252 252 253 256 259 260
245 245 245 245 244 244 245 245 244 243 243 243 242 241 242 241 242 243 242 242 244 244 244 244 245 246 247 249 250 250 248 248 248 248 250 251 253 253 252 254 257 259 260
245 245 245 245 245 245 244 244 244 244 244 244 243 242 242 243 243 243 243 243 244 244 245 245 245 245 247 248 249 249 249 249 248 248 250 252 253 253 253 255 257 258 260
245 245 245 245 244 244 244 244 244 244 244 244 243 242 242 242 243 245 245 244 245 246 245 245 244 246 246 248 249 249 250 250 250 249 251 252 252 253 254 255 257 258 260
246 245 244 244 244 244 244 244 243 243 243 244 243 242 243 243 243 245 246 246 246 247 245 246 246 247 247 248 249 249 250 251 252 251 251 252 253 254 255 256 257 258 260
246 244 243 243 244 244 243 244 243 244 243 244 244 244 243 243 244 245 245 245 246 246 246 247 247 248 249 250 250 251 251 251 252 251 252 252 253 254 256 258 258 258 260
245 244 243 242 242 243 243 243 243 242 242 244 244 245 243 244 244 245 245 245 246 246 246 247 247 248 249 250 251 252 251 252 252 251 253 253 254 255 256 257 257 258 259
245 245 243 242 242 242 243 244 244 243 244 245 244 245 245 245 245 245 245 246 246 246 247 247 248 248 250 250 251 252 253 253 252 252 253 254 256 257 257 258 258 260 260
245 245 244 242 242 242 243 244 244 243 244 245 245 245 246 247 246 247 246 246 246 247 248 248 248 249 250 251 252 253 253 253 253 252 253 254 256 258 258 259 259 260 261
245 245 244 243 242 241 242 243 244 245 245 246 246 246 246 246 246 246 246 246 246 247 248 249 249 250 251 251 252 252 253 254 255 254 254 255 256 258 258 259 259 259 261
245 246 245 244 243 243 243 244 245 246 246 246 247 248 248 247 245 245 246 247 247 247 248 249 250 250 251 252 253 253 254 255 255 255 254 255 256 258 259 260 259 260 261
246 246 245 244 243 243 244 244 245 246 246 247 247 248 249 248 247 246 246 246 247 247 248 249 250 250 251 252 253 254 255 255 254 255 255 255 256 258 260 260 259 260 262
245 245 245 244 243 243 244 244 245 246 247 248 248 248 247 248 247 246 245 247 248 248 248 248 250 250 251 252 253 255 255 256 256 256 256 256 256 257 259 259 260 260 261
246 245 245 244 243 243 244 245 245 246 247 248 248 247 248 249 248 248 247 247 247 247 247 248 250 250 251 252 252 253 255 256 258 257 256 256 257 258 259 260 260 260 261
246 245 245 244 243 243 245 246 246 246 247 248 249 249 248 248 248 248 247 246 246 247 248 249 250 251 251 251 252 253 254 256 257 257 256 256 257 258 259 260 260 261 261
246 245 245 244 244 245 246 246 247 247 247 248 249 249 250 249 249 249 247 247 247 247 248 249 250 250 251 252 252 253 254 255 256 257 257 256 257 258 258 260 261 260 262
Height
5840 5841 5842 5843 5843 5844 5844 5845 5845 5846 5846 5847 5847 5848 5848 5849 5849 5850 5850 5850 5851 5851 5851 5851 5852 5852 5852 5853 5853 5853 5854 5854 5854 5855 5855 5854 5854 5855 5854 5854 5854 5854 5854
5837 5838 5839 5840 5841 5841 5842 5842 5843 5843 5844 5845 5845 5846 5846 5847 5847 5848 5848 5849 5849 5850 5850 5850 5851 5851 5851 5852 5852 5853 5853 5853 5853 5854 5854 5854 5854 5854 5854 5854 5854 5853 5853
5834 5835 5835 5836 5837 5838 5839 5840 5840 5841 5842 5842 5843 5844 5844 5845 5845 5846 5846 5847 5847 5848 5848 5849 5849 5850 5850 5850 5851 5851 5851 5852 5852 5852 5852 5852 5853 5853 5853 5853 5853 5853 5852
5830 5831 5832 5833 5834 5835 5836 5837 5837 5838 5839 5840 5840 5841 5842 5842 5843 5843 5844 5845 5845 5846 5846 5847 5848 5848 5848 5849 5849 5850 5850 5850 5851 5851 5851 5851 5851 5851 5851 5851 5851 5851 5851
5826 5827 5828 5829 5830 5831 5832 5833 5834 5835 5836 5836 5837 5838 5839 5840 5840 5841 5842 5842 5843 5844 5844 5845 5845 5846 5846 5847 5847 5848 5848 5848 5849 5849 5849 5849 5850 5850 5850 5850 5850 5850 5850
5821 5822 5824 5825 5826 5827 5828 5829 5830 5831 5832 5833 5834 5835 5836 5837 5837 5838 5839 5839 5840 5841 5842 5842 5843 5844 5844 5844 5845 5845 5846 5846 5847 5847 5847 5847 5848 5848 5848 5848 5848 5848 5849
5816 5817 5819 5820 5821 5823 5824 5825 5826 5827 5828 5829 5830 5831 5832 5833 5834 5835 5836 5837 5837 5838 5839 5839 5840 5841 5841 5842 5842 5843 5843 5844 5844 5845 5845 5845 5846 5846 5846 5846 5846 5847 5847
5811 5812 5814 5815 5816 5818 5819 5820 5821 5822 5824 5825 5826 5827 5828 5829 5830 5831 5832 5833 5834 5835 5836 5836 5837 5838 5838 5839 5840 5840 5841 5841 5842 5842 5842 5843 5843 5844 5844 5844 5844 5845 5845
5805 5807 5808 5810 5811 5812 5814 5815 5816 5818 5819 5820 5822 5823 5824 5825 5826 5827 5828 5829 5830 5831 5832 5833 5834 5835 5835 5836 5837 5837 5838 5838 5839 5839 5840 5840 5841 5841 5841 5842 5842 5842 5843
5798 5800 5802 5804 5805 5807 5808 5810 5811 5813 5814 5815 5817 5818 5819 5821 5822 5823 5824 5825 5826 5827 5828 5829 5830 5831 5832 5833 5833 5834 5835 5835 5836 5836 5837 5837 5838 5838 5839 5839 5839 5840 5840
5791 5793 5795 5797 5799 5801 5802 5804 5805 5807 5808 5810 5811 5813 5814 5816 5817 5819 5820 5821 5822 5823 5824 5825 5826 5827 5828 5829 5830 5830 5831 5832 5832 5833 5833 5834 5834 5835 5836 5836 5836 5837 5837
5783 5785 5787 5789 5792 5794 5796 5797 5799 5801 5803 5804 5805 5807 5809 5810 5812 5814 5815 5816 5817 5819 5820 5821 5822 5823 5824 5825 5826 5827 5827 5828 5829 5829 5830 5830 5831 5831 5832 5833 5833 5833 5834
5774 5777 5779 5782 5784 5786 5789 5791 5792 5794 5796 5798 5800 5801 5803 5805 5806 5808 5810 5811 5812 5814 5815 5816 5817 5818 5819 5820 5821 5822 5823 5824 5825 5825 5826 5826 5827 5828 5828 5829 5829 5830 5830
5765 5768 5770 5773 5776 5778 5781 5783 5785 5787 5789 5791 5793 5795 5797 5799 5801 5802 5804 5806 5807 5809 5810 5811 5812 5813 5815 5816 5817 5818 5819 5820 5820 5821 5822 5822 5823 5824 5824 5825 5825 5826 5826
5756 5759 5761 5764 5767 5770 5773 5775 5777 5779 5782 5784 5786 5788 5790 5792 5794 5796 5798 5800 5801 5803 5804 5806 5807 5808 5810 5811 5812 5813 5814 5815 5816 5816 5817 5818 5819 5819 5820 5821 5821 5822 5822
5746 5749 5752 5755 5758 5761 5764 5766 5769 5772 5774 5776 5779 5781 5783 5785 5787 5790 5792 5793 5795 5797 5798 5800 5802 5803 5804 5805 5807 5808 5809 5810 5810 5811 5812 5813 5814 5814 5815 5816 5816 5817 5817
5736 5739 5742 5745 5748 5751 5754 5757 5760 5763 5766 5768 5770 5773 5775 5777 5780 5782 5784 5786 5788 5790 5792 5794 5795 5797 5798 5799 5801 5802 5803 5804 5805 5806 5807 5807 5808 5809 5810 5810 5811 5811 5812
5726 5729 5732 5735 5738 5741 5744 5748 5751 5754 5757 5760 5762 5764 5767 5769 5772 5774 5777 5779 5781 5783 5785 5787 5788 5790 5791 5793 5794 5796 5797 5798 5799 5800 5801 5801 5802 5803 5804 5805 5805 5806 5806
5715 5718 5721 5724 5728 5731 5735 5738 5741 5745 5748 5751 5753 5756 5758 5761 5763 5766 5769 5771 5773 5775 5777 5779 5781 5783 5784 5786 5787 5789 5790 5791 5792 5793 5794 5795 5796 5797 5798 5799 5799 5800 5800
5704 5707 5710 5713 5717 5721 5725 5728 5732 5735 5738 5741 5744 5746 5749 5751 5754 5757 5760 5762 5765 5767 5769 5771 5773 5775 5777 5778 5780 5781 5782 5784 5785 5786 5787 5788 5789 5790 5791 5792 5793 5793 5794
5693 5696 5699 5703 5706 5710 5714 5718 5721 5724 5727 5731 5734 5736 5739 5742 5744 5747 5750 5753 5756 5758 5760 5762 5764 5766 5768 5770 5772 5773 5775 5776 5777 5779 5780 5781 5782 5783 5784 5785 5785 5786 5786
5682 5685 5688 5692 5696 5700 5703 5707 5710 5713 5716 5720 5723 5726 5728 5731 5734 5737 5740 5743 5746 5748 5751 5753 5755 5757 5759 5761 5763 5764 5766 5768 5769 5771 5772 5773 5774 5775 5776 5777 5778 5778 5779
5670 5673 5677 5680 5684 5688 5692 5695 5699 5702 5705 5709 5712 5714 5717 5720 5723 5726 5729 5732 5735 5738 5740 5743 5745 5748 5750 5751 5753 5755 5757 5759 5760 5762 5763 5764 5766 5767 5768 5768 5769 5770 5770
5659 5662 5665 5669 5673 5676 5680 5683 5687 5691 5694 5698 5700 5702 5705 5708 5711 5714 5718 5721 5724 5726 5729 5732 5734 5737 5739 5741 5743 5745 5747 5749 5751 5752 5754 5755 5756 5758 5759 5759 5760 5761 5761
5647 5650 5654 5657 5661 5664 5668 5671 5675 5679 5682 5685 5688 5690 5693 5696 5699 5702 5705 5708 5711 5714 5717 5720 5723 5726 5728 5730 5732 5734 5736 5738 5740 5742 5744 5745 5746 5747 5749 5749 5750 5751 5751
5635 5638 5641 5645 5649 5652 5656 5659 5663 5666 5670 5673 5676 5679 5681 5684 5687 5690 5693 5696 5699 5702 5705 5708 5711 5714 5716 5719 5721 5723 5725 5727 5729 5731 5733 5734 5736 5737 5738 5739 5740 5741 5741